星链-35725(STARLINK-35725)

导读 | 豆包AI

STARLINK-35725是美国于2026年1月25日发射的星链系列卫星,隶属于SpaceX公司的星链星座项目。星链计划旨在构建全球卫星互联网星座,为全球提供高速低延迟宽带服务,该卫星入轨后将进一步扩充星链星座规模,提升全球网络覆盖能力。

Basic Information
目录编号:
67565
目录名称:
STARLINK-35725
国际标识:
2026-016E
轨道中心:
EARTH
卫星名称:
星链-35725
卫星全名:
星链-35725(STARLINK-35725)
卫星状态:
在轨 (已飞行120 天)
发射日期:
2026-01-25 UTC
国别 :
美国 (US)
星等 :
--
Orbit Information
数据来源 国际轨道数据 AOE轨道数据
星历时间 2026-05-25T10:28:02+0800
7小时前
查看轨道信息
2026-05-21T22:00:00+0800
3天前
查看轨道信息
半长轴 6843.665km 6843.527km
偏心率 0.0000279 0.0000816
轨道倾角 97.284° 97.284°
近地点辐角 135.883° 95.597°
升交点赤经 205.418° 201.946°
平近点角 224.244° 288.426°
近地点 465.337km 464.831km
远地点 465.719km 465.949km
周期 93.906分钟 93.903分钟
每日圈数 15.334504 15.334968
Detailed Information
固有亮度:
5
最大亮度:
2.5
卫星平台:
Starlink V1.0
覆盖范围:
全球
运营商:
太空探索技术公司
运营商所在国:
美国
制造商(研发单位):
太空探索技术公司
制造商所在国:
美国
使用方式:
暂无
Satellite Introduction
Starlink 计划是 SpaceX 推出的全球卫星互联网项目,通过发射低轨道卫星,为全球尤其是偏远地区提供高速、低延迟的互联网服务。自 2019 年起,Starlink 已部署数千颗卫星,旨在缩小全球数字鸿沟,推动互联网普及。该项目还为军事、航空等行业提供通信支持,带来广泛经济效益。
2D Orbit Map
3D Orbit Map
Orbit Altitude Analysis Chart
Orbit Inclination Analysis Chart
Orbit Comprehensive Analysis Chart
View Comprehensive Chart